Location: LDNL
(36.4545°S, 141.6685°E)
Time: 11:49:36
(UTC+10:00)

Vanguard 3 - Pass Details

Date: 01 February 2022
Orbit: 508 x 3258 km, 33.3° (Epoch: 25 May)

Event Time Altitude Azimuth Distance (km) Brightness Sun altitude
Rises 08:47:40 0° 272° (W) 6,664 11.2 22.2°
Reaches altitude 10° 08:57:34 10° 300° (WNW) 6,079 11.2 24.1°
Maximum altitude 09:02:19 11° 314° (NW) 6,052 11.2 25.1°
Drops below altitude 10° 09:07:10 10° 329° (NNW) 6,187 11.4 26.1°
Sets 09:17:55 0° 357° (N) 6,963 11.9 28.2°
